SIA898 WSSS-VHHH

Flight info

Callsign SIA898
Flight time 3h 12m
Altitude 39000
Route VMR9B VMR M771 VISAT/N0487F400 M771 DUDIS/K0902F400 M771 DOSUT/N0485F400 M771 DULOP/N0484F410 Q1 CARSO/N0487F400 V551 BETTY BETTY3A
Aircraft A359/H-SDE1E2E3GHIJ1J2J3J5M1P2RWXYZ/LB1D1

Departure

Time 2026-05-04 09:52
Airport Singapore Changi Airport (WSSS)

Arrival

Time 2026-05-04 13:05
Airport Hong Kong International Airport (VHHH)
Time Latitude Longitude Altitude Speed Heading
2026-05-04 09:01 1.35159 103.98347 18 ft 0 kts 112°
2026-05-04 09:31 1.35153 103.98360 37 ft 4 kts 112°
2026-05-04 09:31 1.35145 103.98380 37 ft 0 kts 112°
2026-05-04 09:32 1.35159 103.98347 37 ft 0 kts 112°
2026-05-04 09:34 1.35166 103.98327 34 ft 4 kts 104°
2026-05-04 09:34 1.35173 103.98300 33 ft 4 kts 106°
2026-05-04 09:35 1.35179 103.98281 34 ft 4 kts 116°
2026-05-04 09:35 1.35188 103.98266 34 ft 4 kts 159°
2026-05-04 09:35 1.35198 103.98265 34 ft 3 kts 203°
2026-05-04 09:35 1.35223 103.98276 35 ft 4 kts 203°
2026-05-04 09:37 1.35230 103.98279 34 ft 0 kts 203°
2026-05-04 09:40 1.35213 103.98272 37 ft 6 kts 203°
2026-05-04 09:40 1.35153 103.98244 37 ft 10 kts 215°
2026-05-04 09:40 1.35129 103.98211 37 ft 8 kts 238°
2026-05-04 09:41 1.35091 103.98144 37 ft 15 kts 238°
2026-05-04 09:42 1.34608 103.98214 42 ft 17 kts 113°
2026-05-04 09:43 1.34580 103.98280 50 ft 14 kts 113°
2026-05-04 09:43 1.34533 103.98387 50 ft 12 kts 113°
2026-05-04 09:43 1.34509 103.98443 50 ft 15 kts 113°
2026-05-04 09:43 1.34469 103.98537 37 ft 14 kts 113°
2026-05-04 09:44 1.34430 103.98629 37 ft 15 kts 113°
2026-05-04 09:44 1.34388 103.98726 37 ft 16 kts 113°
2026-05-04 09:44 1.34344 103.98830 37 ft 17 kts 113°
2026-05-04 09:46 1.33820 103.98699 37 ft 14 kts 203°
2026-05-04 09:46 1.33731 103.98662 37 ft 14 kts 203°
2026-05-04 09:46 1.33644 103.98625 37 ft 14 kts 203°
2026-05-04 09:47 1.33553 103.98586 37 ft 15 kts 203°
2026-05-04 09:47 1.33449 103.98542 37 ft 17 kts 203°
2026-05-04 09:49 1.32922 103.98424 37 ft 0 kts 110°
2026-05-04 09:51 1.32955 103.98532 37 ft 6 kts 20°
2026-05-04 09:51 1.33012 103.98554 37 ft 20 kts 23°
2026-05-04 09:51 1.33375 103.98708 37 ft 91 kts 23°
2026-05-04 09:51 1.34158 103.99041 37 ft 151 kts 22°
2026-05-04 09:52 1.35257 103.99500 298 ft 181 kts 22°
2026-05-04 09:52 1.36430 104.00000 951 ft 186 kts 22°
2026-05-04 09:52 1.37677 104.00526 1445 ft 204 kts 22°
2026-05-04 09:52 1.39008 104.01084 1825 ft 216 kts 22°
2026-05-04 09:53 1.40438 104.01683 2325 ft 226 kts 22°
2026-05-04 09:53 1.41962 104.02327 2547 ft 248 kts 22°
2026-05-04 09:53 1.43600 104.03020 2931 ft 261 kts 22°
2026-05-04 09:53 1.45282 104.03732 3543 ft 264 kts 22°
2026-05-04 09:54 1.46982 104.04450 4141 ft 267 kts 22°
2026-05-04 09:54 1.48781 104.04953 4704 ft 270 kts
2026-05-04 09:54 1.50622 104.04686 5276 ft 270 kts 337°
2026-05-04 09:54 1.52317 104.03850 5849 ft 273 kts 330°
2026-05-04 09:55 1.53980 104.02923 6414 ft 276 kts 330°
2026-05-04 09:55 1.55666 104.01988 6954 ft 278 kts 330°
2026-05-04 09:55 1.57371 104.01055 7489 ft 281 kts 331°
2026-05-04 09:55 1.59093 104.00118 8029 ft 283 kts 331°
2026-05-04 09:56 1.60825 103.99179 8594 ft 285 kts 331°
2026-05-04 09:56 1.62587 103.98226 9135 ft 288 kts 331°
2026-05-04 09:56 1.64333 103.97283 9693 ft 291 kts 332°
2026-05-04 09:56 1.66126 103.96315 10150 ft 296 kts 332°
2026-05-04 09:57 1.68002 103.95303 10388 ft 309 kts 332°
2026-05-04 09:57 1.69913 103.94272 10580 ft 323 kts 332°
2026-05-04 09:57 1.71929 103.93185 10766 ft 336 kts 332°
2026-05-04 09:57 1.74038 103.92074 10947 ft 348 kts 334°
2026-05-04 09:58 1.76347 103.91251 11099 ft 359 kts 348°
2026-05-04 09:58 1.78848 103.90942 11376 ft 364 kts 356°
2026-05-04 09:58 1.81393 103.90789 11731 ft 368 kts 357°
2026-05-04 10:00 1.99712 103.89659 14295 ft 385 kts 358°
2026-05-04 10:00 2.02392 103.89489 14620 ft 387 kts 358°
2026-05-04 10:02 2.21556 103.88268 16889 ft 402 kts 358°
2026-05-04 10:04 2.41229 103.88787 18920 ft 410 kts 26°
2026-05-04 10:04 2.43755 103.90105 19189 ft 410 kts 31°
2026-05-04 10:04 2.46212 103.91570 19445 ft 411 kts 33°
2026-05-04 10:04 2.48638 103.93103 19720 ft 413 kts 34°
2026-05-04 10:05 2.51059 103.94661 19986 ft 415 kts 34°
2026-05-04 10:05 2.53488 103.96221 20245 ft 416 kts 34°
2026-05-04 10:05 2.55937 103.97780 20502 ft 418 kts 34°
2026-05-04 10:05 2.58405 103.99336 20758 ft 420 kts 33°
2026-05-04 10:06 2.60886 104.00888 21018 ft 421 kts 33°
2026-05-04 10:06 2.63378 104.02441 21264 ft 423 kts 33°
2026-05-04 10:06 2.65887 104.04001 21509 ft 425 kts 33°
2026-05-04 10:08 2.80365 104.13007 22871 ft 434 kts 33°
2026-05-04 10:08 2.82934 104.14606 23092 ft 436 kts 33°
2026-05-04 10:08 2.85510 104.16211 23317 ft 437 kts 33°
2026-05-04 10:08 2.88097 104.17822 23512 ft 439 kts 33°
2026-05-04 10:09 2.90697 104.19441 23712 ft 440 kts 33°
2026-05-04 10:09 2.93303 104.21064 23878 ft 442 kts 33°
2026-05-04 10:09 2.95914 104.22690 24067 ft 443 kts 33°
2026-05-04 10:09 2.98536 104.24324 24247 ft 444 kts 33°
2026-05-04 10:10 3.01165 104.25961 24426 ft 446 kts 33°
2026-05-04 10:10 3.03764 104.27580 24619 ft 447 kts 33°
2026-05-04 10:10 3.06441 104.29249 24783 ft 448 kts 33°
2026-05-04 10:10 3.09051 104.30892 24953 ft 450 kts 33°
2026-05-04 10:11 3.11693 104.32570 25123 ft 451 kts 33°
2026-05-04 10:11 3.14348 104.34261 25314 ft 452 kts 33°
2026-05-04 10:11 3.17015 104.35941 25479 ft 454 kts 33°
2026-05-04 10:11 3.19699 104.37610 25653 ft 455 kts 33°
2026-05-04 10:12 3.22395 104.39277 25831 ft 457 kts 33°
2026-05-04 10:12 3.25106 104.40951 25999 ft 458 kts 33°
2026-05-04 10:12 3.27818 104.42628 26182 ft 459 kts 33°
2026-05-04 10:12 3.30541 104.44315 26364 ft 461 kts 33°
2026-05-04 10:13 3.33269 104.46006 26547 ft 462 kts 33°
2026-05-04 10:13 3.36006 104.47705 26715 ft 464 kts 33°
2026-05-04 10:13 3.38754 104.49412 26902 ft 465 kts 33°
2026-05-04 10:13 3.41508 104.51123 27072 ft 467 kts 33°
2026-05-04 10:14 3.44269 104.52838 27277 ft 468 kts 33°
2026-05-04 10:14 3.47042 104.54564 27451 ft 470 kts 33°
2026-05-04 10:16 3.66708 104.66783 28766 ft 481 kts 33°
2026-05-04 10:16 3.69554 104.68553 28963 ft 483 kts 33°
2026-05-04 10:16 3.72413 104.70330 29135 ft 484 kts 33°
2026-05-04 10:16 3.75275 104.72110 29325 ft 486 kts 33°
2026-05-04 10:17 3.78152 104.73899 29506 ft 487 kts 33°
2026-05-04 10:17 3.81036 104.75693 29697 ft 489 kts 33°
2026-05-04 10:19 4.01454 104.88399 30983 ft 498 kts 32°
2026-05-04 10:19 4.04398 104.90231 31163 ft 499 kts 32°
2026-05-04 10:19 4.07352 104.92071 31344 ft 500 kts 32°
2026-05-04 10:19 4.10309 104.93911 31521 ft 501 kts 32°
2026-05-04 10:20 4.13276 104.95759 31689 ft 503 kts 32°
2026-05-04 10:20 4.16207 104.97585 31867 ft 504 kts 32°
2026-05-04 10:20 4.19183 104.99439 32034 ft 505 kts 32°
2026-05-04 10:20 4.22169 105.01301 32193 ft 506 kts 32°
2026-05-04 10:21 4.25161 105.03166 32351 ft 507 kts 32°
2026-05-04 10:21 4.28158 105.05027 32504 ft 508 kts 32°
2026-05-04 10:21 4.31167 105.06893 32668 ft 509 kts 32°
2026-05-04 10:21 4.34181 105.08763 32817 ft 510 kts 32°
2026-05-04 10:22 4.40227 105.12516 33169 ft 511 kts 32°
2026-05-04 10:22 4.43242 105.14390 33408 ft 510 kts 32°
2026-05-04 10:22 4.46256 105.16263 33660 ft 509 kts 32°
2026-05-04 10:23 4.49265 105.18134 33899 ft 508 kts 32°
2026-05-04 10:23 4.52265 105.19999 34132 ft 507 kts 32°
2026-05-04 10:25 4.73048 105.32927 36070 ft 497 kts 33°
2026-05-04 10:25 4.75983 105.34753 36358 ft 496 kts 33°
2026-05-04 10:25 4.78912 105.36576 36646 ft 495 kts 33°
2026-05-04 10:25 4.81828 105.38392 36933 ft 493 kts 33°
2026-05-04 10:26 4.84723 105.40234 37217 ft 492 kts 34°
2026-05-04 10:26 4.87591 105.42099 37509 ft 490 kts 34°
2026-05-04 10:26 4.90440 105.43969 37813 ft 489 kts 34°
2026-05-04 10:26 4.93280 105.45835 38109 ft 488 kts 34°
2026-05-04 10:27 4.96115 105.47695 38395 ft 486 kts 34°
2026-05-04 10:27 4.98945 105.49546 38642 ft 485 kts 34°
2026-05-04 10:27 5.01773 105.51392 38820 ft 485 kts 34°
2026-05-04 10:28 5.07432 105.55078 38859 ft 484 kts 34°
2026-05-04 10:28 5.13089 105.58761 38860 ft 485 kts 34°
2026-05-04 10:29 5.18748 105.62446 38859 ft 485 kts 34°
2026-05-04 10:29 5.23450 105.65509 38858 ft 485 kts 34°
2026-05-04 10:30 5.29114 105.69201 38859 ft 485 kts 34°
2026-05-04 10:30 5.34775 105.72891 38858 ft 485 kts 34°
2026-05-04 10:31 5.40437 105.76582 38860 ft 485 kts 34°
2026-05-04 10:32 5.60248 105.89504 38859 ft 485 kts 34°
2026-05-04 10:33 5.65902 105.93194 38858 ft 484 kts 34°
2026-05-04 10:33 5.71545 105.96878 38859 ft 484 kts 34°
2026-05-04 10:34 5.77188 106.00563 38860 ft 484 kts 34°
2026-05-04 10:34 5.82789 106.04221 38864 ft 484 kts 34°
2026-05-04 10:35 5.88428 106.07905 38862 ft 483 kts 34°
2026-05-04 10:35 5.94066 106.11589 38861 ft 483 kts 34°
2026-05-04 10:36 5.99705 106.15274 38865 ft 483 kts 34°
2026-05-04 10:36 6.05334 106.18955 38867 ft 483 kts 34°
2026-05-04 10:37 6.10974 106.22642 38863 ft 483 kts 34°
2026-05-04 10:37 6.16602 106.26324 38868 ft 483 kts 34°
2026-05-04 10:39 6.36302 106.39216 38872 ft 482 kts 34°
2026-05-04 10:40 6.41920 106.42895 38868 ft 482 kts 34°
2026-05-04 10:40 6.47538 106.46575 38869 ft 482 kts 34°
2026-05-04 10:41 6.53113 106.50228 38869 ft 481 kts 34°
2026-05-04 10:41 6.58725 106.53906 38868 ft 482 kts 34°
2026-05-04 10:42 6.64338 106.57586 38864 ft 482 kts 34°
2026-05-04 10:42 6.69953 106.61268 38868 ft 482 kts 34°
2026-05-04 10:43 6.75576 106.64956 38865 ft 482 kts 34°
2026-05-04 10:45 6.98061 106.79716 38873 ft 483 kts 34°
2026-05-04 10:45 7.03684 106.83414 38870 ft 483 kts 34°
2026-05-04 10:46 7.09305 106.87111 38871 ft 483 kts 34°
2026-05-04 10:46 7.14928 106.90811 38867 ft 483 kts 34°
2026-05-04 10:47 7.20550 106.94511 38871 ft 483 kts 34°
2026-05-04 10:47 7.26169 106.98211 38870 ft 483 kts 34°
2026-05-04 10:49 7.48530 107.12945 38866 ft 481 kts 35°
2026-05-04 10:50 7.54123 107.16633 38871 ft 481 kts 35°
2026-05-04 10:52 7.76487 107.31393 38870 ft 480 kts 35°
2026-05-04 10:52 7.82079 107.35087 38871 ft 480 kts 35°
2026-05-04 10:54 8.04395 107.49839 38870 ft 478 kts 35°
2026-05-04 10:56 8.26674 107.64588 38873 ft 480 kts 34°
2026-05-04 10:57 8.32258 107.68288 38875 ft 480 kts 34°
2026-05-04 10:57 8.37840 107.71987 38872 ft 480 kts 33°
2026-05-04 10:58 8.43389 107.75666 38860 ft 480 kts 33°
2026-05-04 10:58 8.49013 107.79396 38856 ft 480 kts 33°
2026-05-04 10:59 8.54561 107.83076 38867 ft 480 kts 33°
2026-05-04 10:59 8.60143 107.86780 38871 ft 480 kts 33°
2026-05-04 11:00 8.65727 107.90487 38875 ft 480 kts 33°
2026-05-04 11:02 8.88053 108.05322 38877 ft 480 kts 33°
2026-05-04 11:05 9.30055 108.33292 38879 ft 484 kts 33°
2026-05-04 11:06 9.35667 108.37036 38881 ft 484 kts 33°
2026-05-04 11:06 9.41295 108.40791 38876 ft 484 kts 33°
2026-05-04 11:10 9.81248 108.67476 38890 ft 495 kts 34°
2026-05-04 11:12 10.04232 108.82866 38885 ft 496 kts 33°
2026-05-04 11:12 10.09997 108.86721 38891 ft 496 kts 33°
2026-05-04 11:13 10.15762 108.90577 38890 ft 496 kts 33°
2026-05-04 11:13 10.21529 108.94439 38877 ft 496 kts 33°
2026-05-04 11:16 10.50352 109.13773 38896 ft 497 kts 33°
2026-05-04 11:16 10.56127 109.17652 38902 ft 498 kts 33°
2026-05-04 11:17 10.61909 109.21537 38888 ft 499 kts 33°
2026-05-04 11:19 10.84168 109.36514 38886 ft 500 kts 32°
2026-05-04 11:19 10.89940 109.40401 38896 ft 501 kts 32°
2026-05-04 11:20 10.95746 109.44313 38904 ft 501 kts 32°
2026-05-04 11:20 11.01590 109.48252 38902 ft 501 kts 32°
2026-05-04 11:22 11.24825 109.63724 38896 ft 498 kts 31°
2026-05-04 11:23 11.30641 109.67547 38907 ft 497 kts 31°
2026-05-04 11:25 11.50879 109.80911 38911 ft 494 kts 31°
2026-05-04 11:25 11.56650 109.84727 38902 ft 494 kts 31°
2026-05-04 11:27 11.82608 110.01910 38908 ft 494 kts 31°
2026-05-04 11:28 11.88372 110.05730 38909 ft 495 kts 31°
2026-05-04 11:28 11.94148 110.09560 38919 ft 495 kts 31°
2026-05-04 11:29 11.99935 110.13401 38928 ft 496 kts 31°
2026-05-04 11:29 12.05723 110.17244 38911 ft 497 kts 31°
2026-05-04 11:33 12.46309 110.44491 38920 ft 503 kts 33°
2026-05-04 11:33 12.52075 110.48553 38921 ft 503 kts 33°
2026-05-04 11:34 12.57852 110.52602 38922 ft 504 kts 33°
2026-05-04 11:34 12.63649 110.56652 38922 ft 504 kts 33°
2026-05-04 11:35 12.69451 110.60704 38922 ft 505 kts 32°
2026-05-04 11:35 12.75250 110.64759 38924 ft 505 kts 32°
2026-05-04 11:36 12.81055 110.68824 38926 ft 506 kts 32°
2026-05-04 11:36 12.86871 110.72889 38923 ft 506 kts 32°
2026-05-04 11:37 12.92690 110.76960 38926 ft 506 kts 32°
2026-05-04 11:37 12.98507 110.81034 38928 ft 506 kts 32°
2026-05-04 11:38 13.04320 110.85109 38928 ft 506 kts 32°
2026-05-04 11:38 13.10129 110.89183 38928 ft 506 kts 32°
2026-05-04 11:39 13.15940 110.93261 38929 ft 506 kts 32°
2026-05-04 11:41 13.36265 111.07543 38929 ft 508 kts 32°
2026-05-04 11:41 13.42097 111.11647 38928 ft 508 kts 32°
2026-05-04 11:42 13.47926 111.15751 38929 ft 508 kts 32°
2026-05-04 11:42 13.53757 111.19858 38929 ft 508 kts 32°
2026-05-04 11:43 13.59592 111.23971 38933 ft 509 kts 32°
2026-05-04 11:43 13.65431 111.28090 38932 ft 509 kts 32°
2026-05-04 11:44 13.71272 111.32212 38933 ft 510 kts 32°
2026-05-04 11:44 13.77116 111.36340 38933 ft 510 kts 32°
2026-05-04 11:45 13.82968 111.40475 38933 ft 510 kts 32°
2026-05-04 11:45 13.88819 111.44612 38935 ft 511 kts 32°
2026-05-04 11:46 13.94674 111.48754 38941 ft 511 kts 32°
2026-05-04 11:46 14.00530 111.52899 38938 ft 511 kts 32°
2026-05-04 11:47 14.06359 111.57000 38939 ft 511 kts 32°
2026-05-04 11:47 14.12229 111.61124 38941 ft 511 kts 32°
2026-05-04 11:48 14.18096 111.65253 38942 ft 511 kts 32°
2026-05-04 11:48 14.23963 111.69388 38945 ft 511 kts 32°
2026-05-04 11:49 14.29826 111.73524 38946 ft 511 kts 32°
2026-05-04 11:49 14.35694 111.77665 38944 ft 511 kts 32°
2026-05-04 11:50 14.41553 111.81804 38945 ft 510 kts 32°
2026-05-04 11:50 14.47399 111.85935 38946 ft 509 kts 32°
2026-05-04 11:51 14.53228 111.90058 38944 ft 508 kts 32°
2026-05-04 11:51 14.59065 111.94193 38947 ft 507 kts 32°
2026-05-04 11:52 14.64887 111.98311 38947 ft 507 kts 32°
2026-05-04 11:52 14.70703 112.02421 38947 ft 507 kts 32°
2026-05-04 11:53 14.76523 112.06521 38948 ft 506 kts 32°
2026-05-04 11:53 14.82350 112.10605 38950 ft 506 kts 32°
2026-05-04 11:55 15.05576 112.26943 38950 ft 505 kts 32°
2026-05-04 11:56 15.11386 112.31038 38950 ft 505 kts 32°
2026-05-04 11:56 15.17197 112.35138 38951 ft 506 kts 32°
2026-05-04 11:57 15.23011 112.39241 38949 ft 506 kts 32°
2026-05-04 11:57 15.28792 112.43325 38951 ft 506 kts 32°
2026-05-04 11:58 15.34610 112.47438 38954 ft 507 kts 32°
2026-05-04 11:58 15.40433 112.51557 38952 ft 507 kts 32°
2026-05-04 11:59 15.46262 112.55683 38949 ft 507 kts 32°
2026-05-04 11:59 15.52090 112.59811 38953 ft 508 kts 31°
2026-05-04 12:00 15.57924 112.63946 38952 ft 508 kts 32°
2026-05-04 12:00 15.63764 112.68089 38952 ft 509 kts 31°
2026-05-04 12:01 15.69604 112.72234 38949 ft 509 kts 32°
2026-05-04 12:02 15.90034 112.86759 38954 ft 508 kts 32°
2026-05-04 12:03 15.95872 112.90916 38952 ft 508 kts 32°
2026-05-04 12:03 16.01707 112.95074 38953 ft 508 kts 32°
2026-05-04 12:04 16.07536 112.99231 38953 ft 509 kts 32°
2026-05-04 12:04 16.13372 113.03396 38955 ft 509 kts 32°
2026-05-04 12:05 16.19212 113.07567 38956 ft 509 kts 32°
2026-05-04 12:05 16.25052 113.11741 38953 ft 509 kts 32°
2026-05-04 12:06 16.30894 113.15918 38959 ft 510 kts 32°
2026-05-04 12:06 16.35752 113.19396 38960 ft 510 kts 32°
2026-05-04 12:07 16.41600 113.23584 38961 ft 510 kts 32°
2026-05-04 12:07 16.48391 113.28452 38960 ft 510 kts 32°
2026-05-04 12:08 16.53283 113.31961 38958 ft 509 kts 32°
2026-05-04 12:08 16.59122 113.36152 38961 ft 509 kts 32°
2026-05-04 12:09 16.64955 113.40342 38964 ft 509 kts 32°
2026-05-04 12:09 16.70792 113.44538 38962 ft 509 kts 32°
2026-05-04 12:10 16.76622 113.48732 38967 ft 509 kts 32°
2026-05-04 12:10 16.82416 113.52904 38966 ft 509 kts 32°
2026-05-04 12:11 16.88253 113.57109 38967 ft 509 kts 32°
2026-05-04 12:11 16.94083 113.61313 38964 ft 509 kts 31°
2026-05-04 12:12 16.99950 113.65547 38968 ft 510 kts 31°
2026-05-04 12:12 17.05742 113.69726 38966 ft 510 kts 31°
2026-05-04 12:14 17.29199 113.86427 38968 ft 510 kts 31°
2026-05-04 12:15 17.35252 113.90240 38969 ft 505 kts 20°
2026-05-04 12:15 17.41907 113.92334 38967 ft 498 kts
2026-05-04 12:16 17.48712 113.93626 38974 ft 497 kts
2026-05-04 12:16 17.55536 113.94772 38974 ft 497 kts
2026-05-04 12:17 17.62360 113.95954 38973 ft 497 kts
2026-05-04 12:17 17.69188 113.97176 38975 ft 498 kts
2026-05-04 12:18 17.76008 113.98411 38974 ft 497 kts
2026-05-04 12:18 17.82830 113.99649 38974 ft 497 kts
2026-05-04 12:19 17.89644 114.00883 38970 ft 497 kts
2026-05-04 12:19 17.96455 114.02117 38978 ft 497 kts
2026-05-04 12:20 18.03269 114.03353 38981 ft 497 kts
2026-05-04 12:20 18.10077 114.04588 38970 ft 497 kts
2026-05-04 12:21 18.16889 114.05825 38979 ft 497 kts
2026-05-04 12:21 18.23698 114.07062 38985 ft 496 kts
2026-05-04 12:22 18.30504 114.08301 38978 ft 496 kts
2026-05-04 12:22 18.37307 114.09539 38985 ft 496 kts
2026-05-04 12:23 18.44110 114.10778 38974 ft 496 kts
2026-05-04 12:23 18.50914 114.12018 38977 ft 497 kts
2026-05-04 12:24 18.57727 114.13262 38977 ft 497 kts
2026-05-04 12:24 18.64544 114.14507 38979 ft 498 kts
2026-05-04 12:25 18.71376 114.15756 38982 ft 498 kts
2026-05-04 12:25 18.78201 114.17004 38982 ft 498 kts
2026-05-04 12:26 18.85030 114.18254 38985 ft 498 kts
2026-05-04 12:26 18.91857 114.19505 38983 ft 499 kts
2026-05-04 12:27 18.98699 114.20759 38984 ft 499 kts
2026-05-04 12:27 19.05544 114.22015 38985 ft 499 kts
2026-05-04 12:28 19.12381 114.23272 38985 ft 499 kts
2026-05-04 12:28 19.19228 114.24531 38987 ft 499 kts
2026-05-04 12:29 19.26013 114.25779 38781 ft 498 kts
2026-05-04 12:29 19.29430 114.26409 38530 ft 499 kts
2026-05-04 12:29 19.32851 114.27037 38256 ft 500 kts
2026-05-04 12:30 19.36283 114.27669 37996 ft 501 kts
2026-05-04 12:30 19.39715 114.28300 37731 ft 502 kts
2026-05-04 12:30 19.43158 114.28934 37473 ft 503 kts
2026-05-04 12:30 19.46608 114.29571 37221 ft 504 kts
2026-05-04 12:31 19.50065 114.30209 36962 ft 505 kts
2026-05-04 12:31 19.53520 114.30846 36708 ft 506 kts
2026-05-04 12:31 19.56991 114.31488 36456 ft 507 kts
2026-05-04 12:31 19.60467 114.32130 36231 ft 508 kts
2026-05-04 12:32 19.63950 114.32774 35987 ft 509 kts
2026-05-04 12:32 19.70930 114.34066 35510 ft 511 kts
2026-05-04 12:32 19.74441 114.34716 35274 ft 512 kts
2026-05-04 12:33 19.77949 114.35365 35043 ft 513 kts
2026-05-04 12:33 19.81465 114.36017 34814 ft 513 kts
2026-05-04 12:33 19.84990 114.36670 34585 ft 515 kts
2026-05-04 12:33 19.88522 114.37326 34359 ft 516 kts
2026-05-04 12:34 19.92060 114.37982 34133 ft 517 kts
2026-05-04 12:34 19.95602 114.38640 33898 ft 518 kts
2026-05-04 12:34 19.99151 114.39299 33643 ft 519 kts
2026-05-04 12:34 20.02713 114.39961 33385 ft 520 kts
2026-05-04 12:35 20.06277 114.40624 33128 ft 520 kts
2026-05-04 12:35 20.09846 114.41288 32888 ft 521 kts
2026-05-04 12:35 20.13417 114.41953 32647 ft 522 kts
2026-05-04 12:35 20.17001 114.42620 32395 ft 523 kts
2026-05-04 12:36 20.20592 114.43289 32151 ft 524 kts
2026-05-04 12:36 20.24183 114.43958 31910 ft 525 kts
2026-05-04 12:36 20.27783 114.44629 31669 ft 526 kts
2026-05-04 12:36 20.31394 114.45302 31434 ft 527 kts
2026-05-04 12:37 20.35005 114.45976 31199 ft 528 kts
2026-05-04 12:37 20.38630 114.46652 30963 ft 528 kts
2026-05-04 12:37 20.42244 114.47328 30737 ft 527 kts
2026-05-04 12:37 20.45851 114.48003 30511 ft 526 kts
2026-05-04 12:38 20.49448 114.48676 30288 ft 524 kts
2026-05-04 12:38 20.53042 114.49349 30055 ft 523 kts
2026-05-04 12:38 20.56618 114.50019 29787 ft 522 kts
2026-05-04 12:38 20.60189 114.50688 29529 ft 520 kts
2026-05-04 12:39 20.63696 114.51346 29275 ft 518 kts
2026-05-04 12:39 20.67241 114.52012 29017 ft 516 kts
2026-05-04 12:39 20.70816 114.52682 28762 ft 514 kts
2026-05-04 12:39 20.74334 114.53343 28514 ft 512 kts
2026-05-04 12:40 20.77792 114.53992 28261 ft 510 kts
2026-05-04 12:40 20.81325 114.54655 27995 ft 508 kts
2026-05-04 12:40 20.84748 114.55165 27437 ft 499 kts 359°
2026-05-04 12:40 20.88217 114.55298 26615 ft 498 kts 357°
2026-05-04 12:41 20.91670 114.55347 25924 ft 495 kts 356°
2026-05-04 12:41 20.95105 114.55385 25275 ft 491 kts 356°
2026-05-04 12:41 20.98503 114.55419 24650 ft 487 kts 356°
2026-05-04 12:41 21.01882 114.55452 24020 ft 483 kts 356°
2026-05-04 12:42 21.05232 114.55484 23358 ft 480 kts 356°
2026-05-04 12:42 21.08551 114.55516 22674 ft 474 kts 356°
2026-05-04 12:42 21.11831 114.55547 22043 ft 468 kts 356°
2026-05-04 12:42 21.15066 114.55578 21424 ft 462 kts 356°
2026-05-04 12:43 21.18263 114.55608 20803 ft 456 kts 356°
2026-05-04 12:43 21.21416 114.55638 20183 ft 451 kts 356°
2026-05-04 12:43 21.24545 114.55666 19556 ft 447 kts 356°
2026-05-04 12:43 21.27641 114.55695 18927 ft 443 kts 356°
2026-05-04 12:44 21.30704 114.55723 18301 ft 439 kts 356°
2026-05-04 12:44 21.33750 114.55750 17605 ft 435 kts 356°
2026-05-04 12:44 21.36757 114.55778 16967 ft 429 kts 356°
2026-05-04 12:44 21.39722 114.55805 16346 ft 424 kts 356°
2026-05-04 12:45 21.42657 114.55832 15725 ft 419 kts 356°
2026-05-04 12:45 21.45552 114.55859 15108 ft 414 kts 356°
2026-05-04 12:45 21.48406 114.55761 14505 ft 406 kts 348°
2026-05-04 12:45 21.51077 114.55056 14332 ft 385 kts 339°
2026-05-04 12:46 21.53575 114.54205 14227 ft 368 kts 338°
2026-05-04 12:46 21.55962 114.53372 14079 ft 354 kts 338°
2026-05-04 12:46 21.58278 114.52563 13660 ft 349 kts 338°
2026-05-04 12:46 21.60537 114.51665 13163 ft 342 kts 330°
2026-05-04 12:47 21.62437 114.50226 12855 ft 329 kts 313°
2026-05-04 12:47 21.64030 114.48459 12628 ft 330 kts 309°
2026-05-04 12:47 21.65584 114.46645 12388 ft 330 kts 309°
2026-05-04 12:47 21.67136 114.44834 12180 ft 328 kts 309°
2026-05-04 12:48 21.68684 114.43036 11939 ft 327 kts 309°
2026-05-04 12:48 21.70227 114.41247 11714 ft 326 kts 309°
2026-05-04 12:48 21.71773 114.39457 11485 ft 326 kts 310°
2026-05-04 12:48 21.73289 114.37702 11262 ft 324 kts 310°
2026-05-04 12:49 21.74823 114.35927 11022 ft 323 kts 310°
2026-05-04 12:49 21.76350 114.34158 10823 ft 322 kts 310°
2026-05-04 12:49 21.77869 114.32402 10663 ft 310 kts 310°
2026-05-04 12:49 21.79313 114.30734 10500 ft 299 kts 309°
2026-05-04 12:50 21.80686 114.29143 10283 ft 290 kts 309°
2026-05-04 12:50 21.82042 114.27571 10036 ft 284 kts 309°
2026-05-04 12:50 21.83381 114.26017 9768 ft 282 kts 309°
2026-05-04 12:50 21.84715 114.24468 9600 ft 283 kts 309°
2026-05-04 12:51 21.86070 114.22893 9325 ft 281 kts 310°
2026-05-04 12:51 21.87380 114.21374 9118 ft 281 kts 310°
2026-05-04 12:51 21.88702 114.19825 8915 ft 280 kts 308°
2026-05-04 12:51 21.89818 114.18126 8713 ft 276 kts 298°
2026-05-04 12:52 21.90761 114.16330 8529 ft 275 kts 296°
2026-05-04 12:52 21.91684 114.14522 8318 ft 275 kts 296°
2026-05-04 12:52 21.92607 114.12718 8134 ft 275 kts 297°
2026-05-04 12:52 21.93531 114.10923 7942 ft 273 kts 297°
2026-05-04 12:53 21.94453 114.09136 7759 ft 273 kts 297°
2026-05-04 12:53 21.95373 114.07349 7552 ft 273 kts 297°
2026-05-04 12:53 21.96295 114.05563 7366 ft 272 kts 297°
2026-05-04 12:53 21.97214 114.03783 7175 ft 272 kts 297°
2026-05-04 12:54 21.97820 114.02608 7047 ft 271 kts 297°
2026-05-04 12:54 21.98740 114.00828 6859 ft 271 kts 297°
2026-05-04 12:54 21.99653 113.99057 6659 ft 270 kts 297°
2026-05-04 12:54 22.00566 113.97288 6477 ft 271 kts 297°
2026-05-04 12:55 22.01484 113.95509 6316 ft 271 kts 297°
2026-05-04 12:55 22.02396 113.93742 6088 ft 268 kts 297°
2026-05-04 12:55 22.03300 113.91987 5893 ft 268 kts 297°
2026-05-04 12:55 22.04205 113.90223 5702 ft 269 kts 297°
2026-05-04 12:56 22.05113 113.88457 5512 ft 269 kts 297°
2026-05-04 12:56 22.06019 113.86697 5305 ft 269 kts 297°
2026-05-04 12:56 22.06927 113.84933 5131 ft 269 kts 297°
2026-05-04 12:56 22.07836 113.83169 4919 ft 269 kts 298°
2026-05-04 12:57 22.08740 113.81411 4766 ft 264 kts 297°
2026-05-04 12:57 22.09612 113.79714 4607 ft 253 kts 298°
2026-05-04 12:57 22.10525 113.78132 4456 ft 245 kts 308°
2026-05-04 12:57 22.11820 113.76998 4301 ft 237 kts 331°
2026-05-04 12:58 22.13274 113.76238 4187 ft 228 kts 335°
2026-05-04 12:58 22.14689 113.75551 4066 ft 219 kts 335°
2026-05-04 12:58 22.16048 113.74887 3929 ft 211 kts 336°
2026-05-04 12:58 22.17377 113.74233 3716 ft 209 kts 336°
2026-05-04 12:59 22.18689 113.73581 3480 ft 207 kts 336°
2026-05-04 12:59 22.19978 113.72941 3313 ft 206 kts 337°
2026-05-04 12:59 22.21298 113.72285 3163 ft 206 kts 337°
2026-05-04 12:59 22.22607 113.71728 3010 ft 204 kts 349°
2026-05-04 13:00 22.23969 113.71858 2853 ft 196 kts 30°
2026-05-04 13:00 22.25065 113.72696 2729 ft 194 kts 44°
2026-05-04 13:00 22.26072 113.73661 2679 ft 193 kts 44°
2026-05-04 13:00 22.27075 113.74620 2624 ft 192 kts 44°
2026-05-04 13:01 22.28001 113.75646 2438 ft 190 kts 53°
2026-05-04 13:01 22.28586 113.76902 2184 ft 187 kts 76°
2026-05-04 13:01 22.28935 113.78243 1933 ft 183 kts 74°
2026-05-04 13:01 22.29342 113.79500 1720 ft 170 kts 69°
2026-05-04 13:02 22.29729 113.80663 1474 ft 159 kts 73°
2026-05-04 13:02 22.29968 113.81790 1240 ft 150 kts 81°
2026-05-04 13:02 22.30058 113.82851 1100 ft 134 kts 88°
2026-05-04 13:02 22.30050 113.83818 985 ft 127 kts 92°
2026-05-04 13:03 22.30014 113.84775 891 ft 129 kts 91°
2026-05-04 13:03 22.30035 113.85750 801 ft 131 kts 82°
2026-05-04 13:03 22.30172 113.86505 704 ft 129 kts 77°
2026-05-04 13:03 22.30287 113.86934 664 ft 130 kts 73°
2026-05-04 13:04 22.30536 113.87866 465 ft 128 kts 76°
2026-05-04 13:04 22.30777 113.88777 295 ft 126 kts 74°
2026-05-04 13:04 22.31051 113.89673 112 ft 127 kts 72°
2026-05-04 13:04 22.31340 113.90553 35 ft 115 kts 72°
2026-05-04 13:05 22.31521 113.91139 39 ft 41 kts 71°
2026-05-04 13:05 22.31604 113.91399 39 ft 35 kts 71°
2026-05-04 13:05 22.31653 113.91626 38 ft 28 kts 86°
2026-05-04 13:05 22.31631 113.91813 35 ft 22 kts 99°
2026-05-04 13:06 22.31606 113.91976 37 ft 20 kts 92°
2026-05-04 13:06 22.31633 113.92057 37 ft 12 kts 67°
2026-05-04 13:06 22.31668 113.92153 37 ft 15 kts 71°
2026-05-04 13:06 22.31705 113.92266 37 ft 17 kts 70°
2026-05-04 13:07 22.31746 113.92394 37 ft 19 kts 71°
2026-05-04 13:07 22.31791 113.92536 37 ft 21 kts 70°
2026-05-04 13:07 22.31840 113.92688 37 ft 22 kts 71°
2026-05-04 13:07 22.31883 113.92820 37 ft 15 kts 71°
2026-05-04 13:08 22.31914 113.92918 37 ft 15 kts 71°
2026-05-04 13:08 22.31948 113.93030 37 ft 15 kts 81°
2026-05-04 13:08 22.31902 113.93103 37 ft 11 kts 159°
2026-05-04 13:08 22.31857 113.93139 37 ft 4 kts 112°
2026-05-04 13:09 22.31856 113.93167 37 ft 5 kts 85°
2026-05-04 13:09 22.31866 113.93210 37 ft 7 kts 74°
2026-05-04 13:09 22.31871 113.93229 37 ft 0 kts 73°